Location: Jastrz?bniki
(50.3667°N, 20.3833°E)
Time: 10:12:45
(UTC+00:00)

Okean 1-7 - Pass Details

Date: 05 August 2024
Orbit: 578 x 600 km, 82.5° (Epoch: 09 September)

Event Time Altitude Azimuth Distance (km) Brightness Sun altitude
Rises 01:00:57 0° 351° (N) 2,824 7.2 -16.4°
Reaches altitude 10° 01:03:10 10° 355° (N) 1,923 6.3 -16.2°
Maximum altitude 01:07:24 67° 78° (ENE) 646 3.3 -15.8°
Enters shadow 01:11:30 11° 161° (SSE) 1,871 5.2 -15.4°
